Regional Weather Roundup
Issued by NWS

Home | Current Version | Previous Version | Graphics & Text | Print | Product List | Glossary On
Versions: 1 2 3 4 5 6 7 8 9 10 11 12 13 14 15 16 17 18 19 20 21 22 23 24 25 26 27
000
ASUS45 KSLC 240810
RWRUT

UTAH REGIONAL WEATHER ROUNDUP
NATIONAL WEATHER SERVICE SALT LAKE CITY UT
200 AM MDT SUN JUL 24 2016

UTZ001>011-023>025-240900-

NORTHERN UTAH

CITY           SKY/WX    TMP DP  RH WIND       PRES   REMARKS
BRIGHAM CITY     N/A     69  29  22 CALM      30.09R
HILL AFB       CLEAR     69  28  22 VRB2      30.10R
LOGAN          CLEAR     58  41  53 CALM      30.13R
OGDEN          CLEAR     68  40  35 N8        30.07R
PROVO AIRPORT  CLEAR     63  43  48 E5        30.07S
SALT LAKE CITY CLEAR     70  46  42 N3        30.05R
VERNAL         CLEAR     72  29  20 NW8       30.12R
WENDOVER       CLEAR     73  30  20 W5        30.10R
HEBER CITY     CLEAR     52  39  62 SE3       30.17R

$$

UTZ012>022-026-027-240900-

SOUTHERN/CENTRAL UTAH

CITY           SKY/WX    TMP DP  RH WIND       PRES   REMARKS
BLANDING       MOCLDY    78  40  26 SE3       30.22R
BRYCE CANYON   CLEAR     51  33  50 NW3       30.31R
CEDAR CITY     CLEAR     68  31  25 NE8       30.13R
DELTA          CLEAR     72  23  16 N9        30.06R
MILFORD        CLEAR     67  27  22 SE5       30.09R
MOAB/CYNLANDS  MOCLDY    80  39  23 VRB3      30.02S
PRICE          PTCLDY    71  26  18 SE3       30.14R
ST GEORGE      SUNNY     93  43  17 S3        29.89S

$$

REGIONAL REPORTS     COLORADO/ARIZONA

CITY           SKY/WX    TMP DP  RH WIND       PRES   REMARKS
CRAIG, CO      CLOUDY    72  33  24 SE9       30.21F
GRAND JUNCTION CLEAR     82  37  20 NE14G24   30.06F
RIFLE          CLOUDY    70  41  34 S8        30.17F
MONTROSE       CLOUDY    67  43  41 SE6       30.18R
CORTEZ         CLOUDY    61  47  59 E5        30.16S
PAGE, AZ       PTCLDY    87  39  18 SW3       29.99S
GRAND CANYON   PTCLDY    60  52  74 E3        30.26S
KINGMAN        CLEAR     87  50  27 CALM      29.97S
FLAGSTAFF      PTCLDY    62  47  57 CALM      30.26F

$$

REGIONAL REPORTS    NEVADA/IDAHO/WYOMING

CITY           SKY/WX    TMP DP  RH WIND       PRES   REMARKS
LAS VEGAS, NV  CLEAR     99  45  15 S8        29.77R HX  95
ELY            CLEAR     57  16  20 SW3       30.21R
ELKO           CLEAR     63  29  27 E5        30.17R
POCATELLO, ID  CLEAR     66  24  20 S9        30.13R
BURLEY         CLEAR     56  35  45 SW9       30.10S
EVANSTON, WY   CLOUDY    59  22  24 CALM      30.29R
ROCK SPRINGS   CLOUDY    61  20  20 VRB5      30.26R
KEMMERER         N/A     54  27  35 N8        30.30S

$$




USA.gov is the U.S. government's official web portal to all federal, state and local government web resources and services.